[[{"header":{"parameterUnit":"m.s-1","parameterCategory":1,"la1":30.2991,"la2":30.254,"lo1":-89.0895,"lo2":-89.0444,"dx":0.0017,"dy":0.0017,"nx":28,"ny":28,"refTime":"2022-11-15T15:00:00:Z","depth":0,"parameterNumber":2,"parameterNumberName":"U-component_of_WINDS"},"data":[0,0,0,0,0,0,0,0,0,0,0,0,0,0,0,0,0,0,0,0,0,0,0,0,0,0,0,0,0,0,0,0,0,0,0,0,0,0,0,0,0,0,0,0,0,0,0,0,0,0,0,0,0,0,0,0,0,0,2.417,2.417,0,2.415,2.415,2.415,2.4103,2.4102,2.4101,2.4101,2.4078,2.4078,2.4078,0,0,0,0,0,0,0,0,0,0,0,0,0,2.4169,2.417,2.417,2.417,2.417,2.415,2.415,2.415,2.4104,2.4102,2.4101,2.41,2.4078,2.4078,2.4078,0,0,0,0,0,0,0,0,0,0,0,0,0,2.4161,2.417,2.417,2.4145,2.4142,2.415,2.415,2.4149,2.4104,2.4102,2.4101,2.41,2.4078,2.4078,2.4078,2.4109,0,0,2.408,2.408,0,0,0,0,0,0,0,0,2.4162,2.4162,2.4149,2.4146,2.4144,2.4128,2.4141,2.4136,2.4104,2.4118,2.4101,2.4099,2.4095,2.4094,2.4094,2.4108,2.4107,2.408,2.408,2.408,2.408,0,0,0,0,0,0,0,2.4163,2.4162,2.4162,2.4149,2.4145,2.4134,2.4131,2.414,2.4115,2.4117,2.4114,2.4112,2.4094,2.4093,2.4093,2.4107,2.408,2.408,2.408,2.408,2.4149,2.415,0,0,0,0,0,0,2.4167,2.4163,2.4163,2.4162,2.415,2.4135,2.4132,2.4134,2.4115,2.411,2.4113,2.411,2.4093,2.4092,2.4092,2.4128,2.408,2.4081,2.4081,2.4147,2.4149,2.4151,0,0,0,0,0,0,2.4167,2.4167,2.4164,2.4161,2.416,2.4137,2.4139,2.4135,2.4134,2.4112,2.4107,2.4117,2.4092,2.4091,2.4106,2.4127,2.4081,2.4081,2.4146,2.4148,2.415,2.4201,0,0,0,0,0,0,2.4167,2.4168,2.4179,2.4162,2.416,2.4179,2.4141,2.4135,2.4135,2.4131,2.4114,2.411,2.4091,2.4106,2.4107,2.4127,2.4081,2.4144,2.4147,2.4149,2.4197,2.4205,2.4211,0,0,0,0,0,2.4167,2.4193,2.418,2.418,2.4174,2.418,2.4179,2.4156,2.4137,2.4148,2.4135,2.4111,2.4125,2.4108,2.4108,2.4129,2.4142,2.4146,2.4149,2.4194,2.4203,2.4211,0,0,0,0,0,0,2.4211,2.419,2.4175,2.4196,2.4191,2.4172,2.4185,2.4166,2.4165,2.4161,2.4133,2.4129,2.4149,2.414,2.4121,2.4159,2.413,2.4134,2.4164,2.4172,2.4179,2.4181,2.4082,0,0,0,0,0,2.4224,2.4231,2.4212,2.4232,2.423,2.4209,2.421,2.4194,2.4186,2.4183,2.417,2.4164,2.4167,2.4169,2.417,2.4196,2.4193,2.4211,2.4218,2.4223,2.4227,2.4242,2.425,2.4163,2.4163,2.4162,0,0,2.4249,2.4238,2.4244,2.4241,2.4234,2.4242,2.4206,2.4216,2.4221,2.4184,2.4198,2.4189,2.418,2.4201,2.421,2.4194,2.4251,2.4228,2.4233,2.4233,2.4247,2.4255,2.4262,2.4165,2.4165,2.4164,0,0,2.4299,2.4291,2.4309,2.4304,2.4295,2.4281,2.4285,2.4271,2.4263,2.4277,2.425,2.4257,2.4262,2.4257,2.4255,2.4308,2.4286,2.4309,2.4345,2.436,2.4367,2.4373,2.4392,2.44,2.4312,2.4313,2.4313,0,2.4331,2.4342,2.4319,2.4331,2.4331,2.43,2.4318,2.4314,2.4306,2.4306,2.429,2.4298,2.4289,2.431,2.4323,2.4322,2.4327,2.431,2.4368,2.4373,2.4379,2.4397,2.4405,2.4315,2.4315,2.4315,2.4314,0,2.4383,2.4391,2.4406,2.4401,2.4403,2.4417,2.4398,2.4402,2.4387,2.4375,2.439,2.438,2.4379,2.4383,2.4367,2.4402,2.4393,2.4373,2.4343,2.439,2.4407,2.4414,2.4319,2.4318,2.4318,2.4317,0,0,2.4458,2.4443,2.4448,2.4447,2.4437,2.4442,2.4457,2.4458,2.4463,2.4459,2.4471,2.4478,2.4459,2.4458,2.4441,2.4454,2.4498,2.4432,2.4432,2.4446,2.4539,2.4555,2.4563,2.4485,2.4486,2.4487,2.454,0,2.4506,2.4529,2.4511,2.4538,2.4546,2.4518,2.4531,2.4526,2.4516,2.4522,2.451,2.4516,2.4491,2.449,2.4502,2.4491,2.4517,2.4486,2.4496,2.4496,2.4499,2.4572,2.4588,2.4638,2.4546,2.4547,2.4548,0,2.4564,2.4565,2.4594,2.4584,2.4587,2.4598,2.4599,2.4605,2.46,2.4592,2.4592,2.4573,2.4586,2.4558,2.4577,2.4557,2.456,2.4555,2.4557,2.4557,2.4525,2.4574,2.4654,2.4662,2.4558,2.4557,2.4557,0,2.4618,2.4626,2.4645,2.4644,2.4633,2.4642,2.4638,2.4631,2.4634,2.4635,2.4637,2.4639,2.464,2.4642,2.4625,2.4605,2.4647,2.4616,2.4641,2.4642,2.4651,2.465,2.4732,2.4652,2.4652,2.4652,2.4652,0,2.4673,2.4692,2.4669,2.468,2.4701,2.468,2.4701,2.4694,2.4689,2.4699,2.4675,2.4685,2.4661,2.4669,2.4655,2.4674,2.4674,2.4669,2.4665,2.4671,2.4672,2.4673,2.4669,2.4654,2.4654,2.4653,2.4653,0,2.4736,2.4721,2.474,2.4729,2.4727,2.4743,2.4733,2.4744,2.4733,2.4747,2.4749,2.4732,2.474,2.4723,2.4728,2.4719,2.4747,2.4737,2.4749,2.4746,2.4773,2.4771,2.4858,2.4869,2.4782,2.4782,2.4783,0,2.4772,2.4786,2.4778,2.4783,2.4781,2.479,2.4793,2.4774,2.4778,2.4776,2.4787,2.4793,2.4797,2.4812,2.48,2.4805,2.4796,2.4826,2.4796,2.4803,2.4797,2.4797,2.4799,2.4832,2.4833,2.4834,2.4835,0,2.4838,2.4831,2.4837,2.4842,2.4847,2.485,2.485,2.4856,2.4836,2.4842,2.4851,2.4855,2.4862,2.4869,2.4871,2.4867,2.4848,2.4845,2.4851,2.4857,2.4864,2.4862,2.4767,2.4842,2.4842,2.4841,2.4841,2.484,2.4889,2.4902,2.4899,2.4907,2.4906,2.4908,2.4918,2.491,2.4917,2.4922,2.491,2.4923,2.4919,2.4921,2.4919,2.4929,2.4915,2.4924,2.4926,2.4929,2.4933,2.4863,2.4929,2.4929,2.4929,2.4928,2.4928,0,2.4956,2.4953,2.4961,2.4964,2.4971,2.4954,2.4954,2.4961,2.4973,2.4972,2.4977,2.4989,2.4997,2.4987,2.4993,2.5003,2.4994,2.5005,2.5004,2.5004,2.4945,2.4939,2.5012,2.5012,2.5012,2.5012,2.5012,2.5012,2.4991,2.5011,2.5004,2.5025,2.5022,2.5034,2.5036,2.5039,2.5038,2.5052,2.5059,2.5053,2.5049,2.5056,2.5062,2.5059,2.5063,2.5077,2.5071,2.5016,2.5008,2.5,2.4995,2.5078,2.5078,2.513,2.513,2.5131]},{"header":{"parameterUnit":"m.s-1","parameterCategory":1,"la1":30.2991,"la2":30.254,"lo1":-89.0895,"lo2":-89.0444,"dx":0.0017,"dy":0.0017,"nx":28,"ny":28,"refTime":"2022-11-15T15:00:00:Z","depth":0,"parameterNumber":3,"parameterNumberName":"V-component_of_WINDS"},"data":[0,0,0,0,0,0,0,0,0,0,0,0,0,0,0,0,0,0,0,0,0,0,0,0,0,0,0,0,0,0,0,0,0,0,0,0,0,0,0,0,0,0,0,0,0,0,0,0,0,0,0,0,0,0,0,0,0,0,-7.2517,-7.2518,0,-7.2647,-7.2648,-7.265,-7.2628,-7.2626,-7.2624,-7.2622,-7.2747,-7.2752,-7.2757,0,0,0,0,0,0,0,0,0,0,0,0,0,-7.2244,-7.2249,-7.2517,-7.2518,-7.252,-7.2646,-7.2648,-7.265,-7.2629,-7.2626,-7.2623,-7.2621,-7.2745,-7.2751,-7.2758,0,0,0,0,0,0,0,0,0,0,0,0,0,-7.2367,-7.2251,-7.2516,-7.2525,-7.2527,-7.2646,-7.2648,-7.265,-7.2629,-7.2626,-7.2623,-7.262,-7.2743,-7.2751,-7.2759,-7.2875,0,0,-7.2783,-7.2787,0,0,0,0,0,0,0,0,-7.236,-7.2377,-7.2522,-7.2525,-7.2527,-7.2618,-7.2598,-7.2725,-7.263,-7.259,-7.2622,-7.2618,-7.2706,-7.2717,-7.2748,-7.2881,-7.2886,-7.2784,-7.2789,-7.2792,-7.2795,0,0,0,0,0,0,0,-7.2351,-7.2371,-7.2568,-7.2524,-7.2527,-7.252,-7.2534,-7.2622,-7.2665,-7.2593,-7.2592,-7.2608,-7.2707,-7.2741,-7.2751,-7.2888,-7.2784,-7.2791,-7.2796,-7.2799,-7.3123,-7.3127,0,0,0,0,0,0,-7.2341,-7.2364,-7.2564,-7.2572,-7.2434,-7.2528,-7.2543,-7.2592,-7.2664,-7.2672,-7.2611,-7.2607,-7.2728,-7.2742,-7.2755,-7.2897,-7.2792,-7.28,-7.2804,-7.3119,-7.3124,-7.3128,0,0,0,0,0,0,-7.2335,-7.2359,-7.2558,-7.2468,-7.2493,-7.2536,-7.2591,-7.2596,-7.263,-7.2677,-7.2684,-7.2638,-7.2726,-7.2744,-7.2846,-7.2901,-7.2803,-7.2811,-7.3115,-7.3121,-7.3126,-7.3181,0,0,0,0,0,0,-7.2328,-7.2357,-7.2403,-7.2469,-7.2498,-7.2649,-7.2595,-7.2601,-7.2645,-7.2641,-7.2705,-7.2712,-7.2725,-7.2834,-7.2854,-7.291,-7.2817,-7.311,-7.3118,-7.3124,-7.3175,-7.3188,-7.32,0,0,0,0,0,-7.2318,-7.2412,-7.2406,-7.243,-7.2557,-7.2653,-7.2669,-7.2684,-7.265,-7.2696,-7.2726,-7.271,-7.2892,-7.2845,-7.2867,-7.2927,-7.3107,-7.3115,-7.3124,-7.3169,-7.3185,-7.3199,0,0,0,0,0,0,-7.2348,-7.242,-7.2415,-7.2533,-7.2587,-7.2649,-7.2707,-7.2701,-7.2764,-7.2757,-7.2771,-7.2785,-7.2889,-7.2918,-7.2864,-7.3044,-7.2994,-7.3008,-7.3021,-7.3037,-7.3049,-7.304,-7.2824,0,0,0,0,0,-7.2369,-7.2444,-7.2502,-7.26,-7.2628,-7.2663,-7.2705,-7.2713,-7.2769,-7.2791,-7.2828,-7.2881,-7.295,-7.2995,-7.3061,-7.3179,-7.3192,-7.3231,-7.3243,-7.3253,-7.3264,-7.3329,-7.3347,-7.3156,-7.3156,-7.3156,0,0,-7.2412,-7.2461,-7.2506,-7.2607,-7.265,-7.2726,-7.2682,-7.2763,-7.2818,-7.2802,-7.2902,-7.2932,-7.2991,-7.3102,-7.3152,-7.3129,-7.332,-7.3264,-7.3272,-7.3277,-7.334,-7.3358,-7.3374,-7.3162,-7.3161,-7.316,0,0,-7.2528,-7.2573,-7.2661,-7.2706,-7.2773,-7.2796,-7.2817,-7.2881,-7.2901,-7.3002,-7.2992,-7.3056,-7.3175,-7.3218,-7.3256,-7.3391,-7.3379,-7.3412,-7.3477,-7.354,-7.3555,-7.3569,-7.3617,-7.3635,-7.3423,-7.3423,-7.3424,0,-7.2572,-7.2688,-7.2706,-7.2789,-7.2834,-7.2826,-7.2914,-7.2956,-7.304,-7.307,-7.3043,-7.3194,-7.3233,-7.3354,-7.3388,-7.3418,-7.3442,-7.3405,-7.3552,-7.3566,-7.3579,-7.3625,-7.3643,-7.3427,-7.3427,-7.3426,-7.3426,0,-7.2739,-7.2819,-7.2881,-7.2967,-7.3018,-7.3103,-7.3133,-7.3182,-7.3186,-7.3211,-7.3314,-7.3362,-7.3438,-7.3467,-7.347,-7.3589,-7.3573,-7.3549,-7.35,-7.36,-7.3644,-7.3662,-7.3432,-7.3431,-7.343,-7.3429,0,0,-7.2876,-7.2973,-7.2996,-7.3035,-7.3109,-7.317,-7.3255,-7.3333,-7.3375,-7.3433,-7.3503,-7.3605,-7.3585,-7.3627,-7.3635,-7.369,-7.3796,-7.366,-7.3661,-7.3684,-7.393,-7.3948,-7.3969,-7.3788,-7.3791,-7.3794,-7.3926,0,-7.3001,-7.3153,-7.3173,-7.3307,-7.3381,-7.3376,-7.3449,-7.3502,-7.3528,-7.3593,-7.362,-7.3693,-7.366,-7.3686,-7.3741,-7.3771,-7.3845,-7.3762,-7.3852,-7.3855,-7.3838,-7.3991,-7.401,-7.4132,-7.3943,-7.3946,-7.3948,0,-7.3166,-7.3233,-7.3376,-7.3442,-7.3473,-7.3539,-7.3613,-7.3676,-7.3735,-7.375,-7.3799,-7.38,-7.3885,-7.3834,-7.3951,-7.3894,-7.3932,-7.3953,-7.3958,-7.3966,-7.3907,-7.4004,-7.4171,-7.4189,-7.3975,-7.3973,-7.3971,0,-7.3253,-7.3378,-7.348,-7.3514,-7.3593,-7.364,-7.3674,-7.3731,-7.3777,-7.384,-7.387,-7.3941,-7.398,-7.4034,-7.4054,-7.4014,-7.4171,-7.412,-7.4184,-7.4184,-7.4217,-7.4215,-7.4392,-7.4242,-7.4241,-7.4241,-7.4241,0,-7.3389,-7.3477,-7.3521,-7.3584,-7.3682,-7.3703,-7.3798,-7.383,-7.3881,-7.3948,-7.3946,-7.4009,-7.4032,-7.4098,-7.4113,-7.4209,-7.4226,-7.4239,-7.4242,-7.424,-7.4238,-7.4264,-7.4256,-7.4246,-7.4245,-7.4244,-7.4243,0,-7.3503,-7.3536,-7.3647,-7.3715,-7.3733,-7.3803,-7.3859,-7.3919,-7.3945,-7.4031,-7.4052,-7.4092,-7.417,-7.4196,-7.4288,-7.4299,-7.441,-7.4405,-7.4391,-7.4392,-7.4455,-7.4449,-7.4655,-7.4684,-7.4514,-7.4516,-7.4517,0,-7.3588,-7.3656,-7.3732,-7.3779,-7.3816,-7.3891,-7.3939,-7.3962,-7.4012,-7.4086,-7.4136,-7.4214,-7.4278,-7.4403,-7.4438,-7.451,-7.4507,-7.4575,-7.4517,-7.4513,-7.4508,-7.4504,-7.4511,-7.4585,-7.4587,-7.4588,-7.4589,0,-7.3735,-7.3749,-7.382,-7.3898,-7.3957,-7.4018,-7.4076,-7.4114,-7.4146,-7.4201,-7.4283,-7.4333,-7.443,-7.4507,-7.458,-7.4613,-7.4607,-7.4607,-7.4626,-7.4624,-7.4613,-7.4621,-7.4421,-7.4602,-7.4601,-7.46,-7.4599,-7.4599,-7.3838,-7.3899,-7.3962,-7.4042,-7.4089,-7.4145,-7.4206,-7.4241,-7.431,-7.4394,-7.4402,-7.449,-7.4547,-7.4646,-7.4683,-7.475,-7.4731,-7.4758,-7.4765,-7.4771,-7.4776,-7.4603,-7.4763,-7.4763,-7.4763,-7.4762,-7.4762,0,-7.3986,-7.4027,-7.4101,-7.4185,-7.4248,-7.4239,-7.4305,-7.4356,-7.4435,-7.4491,-7.4555,-7.4649,-7.4724,-7.4767,-7.4842,-7.4888,-7.4887,-7.4907,-7.4904,-7.4911,-7.4789,-7.4766,-7.4907,-7.4907,-7.4907,-7.4907,-7.4907,-7.4907,-7.407,-7.4173,-7.4195,-7.4321,-7.4361,-7.445,-7.4488,-7.4539,-7.4584,-7.469,-7.4754,-7.4783,-7.4834,-7.4913,-7.4981,-7.4991,-7.5019,-7.5041,-7.505,-7.4935,-7.492,-7.4906,-7.4884,-7.5047,-7.5047,-7.5166,-7.5167,-7.5168]}]]